EWG66L EDDS-LPPT

Flight info

Callsign EWG66L
Flight time 2h 49m
Altitude 35000
Route ROTWE5B ROTWE Y126 TUBLO N850 NATOR N869 NINTU DCT MEBAK DCT REPSI DCT LERGA DCT MINSO DCT NARAK DCT AGN DCT PIPOR L866 PPN N976 ARDID DCT INBOM
Aircraft A320/M-SDE3FGHIRWY/LB1

Departure

Time 2026-05-07 08:40
Airport Stuttgart Airport (EDDS)

Arrival

Time 2026-05-07 11:30
Airport Lisbon Humberto Delgado Airport (LPPT)
Time Latitude Longitude Altitude Speed Heading
2026-05-07 07:55 48.68968 9.19776 1311 ft 0 kts 344°
2026-05-07 08:29 48.68948 9.19785 1309 ft 4 kts 344°
2026-05-07 08:30 48.68923 9.19796 1307 ft 2 kts 343°
2026-05-07 08:30 48.68901 9.19802 1305 ft 4 kts 14°
2026-05-07 08:30 48.68883 9.19782 1305 ft 4 kts 70°
2026-05-07 08:30 48.68877 9.19751 1306 ft 0 kts 74°
2026-05-07 08:31 48.68877 9.19752 1306 ft 0 kts 74°
2026-05-07 08:33 48.68877 9.19755 1306 ft 2 kts 74°
2026-05-07 08:33 48.68887 9.19811 1304 ft 9 kts 77°
2026-05-07 08:33 48.68851 9.19885 1300 ft 11 kts 160°
2026-05-07 08:33 48.68825 9.19989 1295 ft 13 kts 67°
2026-05-07 08:34 48.68855 9.20119 1293 ft 13 kts 74°
2026-05-07 08:34 48.68880 9.20255 1289 ft 14 kts 74°
2026-05-07 08:34 48.68908 9.20401 1290 ft 15 kts 73°
2026-05-07 08:34 48.68939 9.20555 1283 ft 16 kts 73°
2026-05-07 08:35 48.68969 9.20717 1278 ft 16 kts 74°
2026-05-07 08:35 48.69000 9.20885 1273 ft 17 kts 74°
2026-05-07 08:35 48.69033 9.21057 1271 ft 17 kts 73°
2026-05-07 08:35 48.69067 9.21233 1268 ft 18 kts 74°
2026-05-07 08:36 48.69101 9.21414 1263 ft 18 kts 74°
2026-05-07 08:36 48.69136 9.21598 1263 ft 18 kts 74°
2026-05-07 08:36 48.69171 9.21787 1256 ft 19 kts 73°
2026-05-07 08:36 48.69208 9.21981 1262 ft 19 kts 74°
2026-05-07 08:37 48.69247 9.22179 1243 ft 20 kts 73°
2026-05-07 08:37 48.69289 9.22384 1241 ft 21 kts 72°
2026-05-07 08:37 48.69329 9.22614 1234 ft 24 kts 76°
2026-05-07 08:37 48.69377 9.22874 1228 ft 27 kts 74°
2026-05-07 08:38 48.69432 9.23163 1222 ft 30 kts 74°
2026-05-07 08:38 48.69487 9.23458 1216 ft 27 kts 73°
2026-05-07 08:38 48.69541 9.23743 1210 ft 30 kts 74°
2026-05-07 08:38 48.69593 9.24013 1204 ft 20 kts 73°
2026-05-07 08:39 48.69585 9.24221 1197 ft 23 kts 121°
2026-05-07 08:39 48.69455 9.24337 1190 ft 17 kts 164°
2026-05-07 08:39 48.69392 9.24332 1191 ft 6 kts 242°
2026-05-07 08:39 48.69380 9.24263 1192 ft 11 kts 254°
2026-05-07 08:40 48.69303 9.23861 1200 ft 74 kts 254°
2026-05-07 08:40 48.69103 9.22807 1221 ft 132 kts 254°
2026-05-07 08:40 48.68827 9.21297 1582 ft 153 kts 256°
2026-05-07 08:40 48.68571 9.19739 2394 ft 153 kts 256°
2026-05-07 08:41 48.68275 9.18106 2752 ft 172 kts 256°
2026-05-07 08:41 48.67926 9.16257 3035 ft 192 kts 255°
2026-05-07 08:41 48.67535 9.14226 3304 ft 212 kts 256°
2026-05-07 08:41 48.67119 9.11971 3720 ft 232 kts 256°
2026-05-07 08:42 48.66659 9.09531 4214 ft 249 kts 255°
2026-05-07 08:42 48.66169 9.07006 5042 ft 253 kts 254°
2026-05-07 08:42 48.65668 9.04456 5835 ft 258 kts 254°
2026-05-07 08:42 48.65149 9.01846 6645 ft 261 kts 253°
2026-05-07 08:43 48.64273 8.99421 7385 ft 268 kts 230°
2026-05-07 08:43 48.62904 8.97461 8185 ft 272 kts 224°
2026-05-07 08:43 48.61480 8.95546 8992 ft 275 kts 223°
2026-05-07 08:43 48.60041 8.93628 9805 ft 278 kts 223°
2026-05-07 08:44 48.58570 8.91673 10357 ft 290 kts 223°
2026-05-07 08:44 48.57008 8.89562 10565 ft 312 kts 224°
2026-05-07 08:44 48.55369 8.87231 10721 ft 335 kts 225°
2026-05-07 08:44 48.53641 8.84709 10957 ft 353 kts 226°
2026-05-07 08:45 48.51867 8.82101 11525 ft 359 kts 226°
2026-05-07 08:45 48.50070 8.79470 12177 ft 362 kts 225°
2026-05-07 08:45 48.48246 8.76814 12832 ft 366 kts 225°
2026-05-07 08:45 48.46404 8.74145 13485 ft 369 kts 225°
2026-05-07 08:46 48.44566 8.71490 14080 ft 373 kts 225°
2026-05-07 08:46 48.42658 8.68740 14620 ft 377 kts 225°
2026-05-07 08:46 48.40782 8.66036 15139 ft 380 kts 225°
2026-05-07 08:46 48.38861 8.63274 15666 ft 384 kts 225°
2026-05-07 08:47 48.36915 8.60479 16166 ft 388 kts 225°
2026-05-07 08:47 48.34956 8.57670 16663 ft 392 kts 225°
2026-05-07 08:47 48.32971 8.54831 17153 ft 395 kts 225°
2026-05-07 08:47 48.30964 8.51963 17605 ft 400 kts 225°
2026-05-07 08:48 48.28940 8.49073 18092 ft 404 kts 225°
2026-05-07 08:48 48.26897 8.46160 18528 ft 407 kts 225°
2026-05-07 08:48 48.24828 8.43218 18954 ft 410 kts 225°
2026-05-07 08:48 48.22750 8.40273 19390 ft 413 kts 225°
2026-05-07 08:49 48.20655 8.37309 19816 ft 416 kts 225°
2026-05-07 08:49 48.18543 8.34327 20236 ft 419 kts 224°
2026-05-07 08:49 48.16242 8.31612 20649 ft 423 kts 214°
2026-05-07 08:49 48.13683 8.29402 21042 ft 427 kts 210°
2026-05-07 08:50 48.11067 8.27279 21479 ft 429 kts 210°
2026-05-07 08:50 48.08438 8.25152 21877 ft 431 kts 210°
2026-05-07 08:50 48.05789 8.23008 22285 ft 433 kts 210°
2026-05-07 08:50 48.03127 8.20854 22669 ft 436 kts 210°
2026-05-07 08:51 48.00452 8.18692 23046 ft 438 kts 210°
2026-05-07 08:51 47.97766 8.16520 23422 ft 440 kts 210°
2026-05-07 08:51 47.95068 8.14339 23765 ft 443 kts 210°
2026-05-07 08:51 47.92350 8.12142 24078 ft 444 kts 210°
2026-05-07 08:52 47.89668 8.09977 24439 ft 445 kts 210°
2026-05-07 08:52 47.86933 8.07781 24746 ft 447 kts 210°
2026-05-07 08:52 47.84192 8.05586 25059 ft 449 kts 210°
2026-05-07 08:52 47.81436 8.03380 25336 ft 451 kts 210°
2026-05-07 08:53 47.78667 8.01166 25637 ft 453 kts 209°
2026-05-07 08:53 47.75878 7.98937 25905 ft 456 kts 210°
2026-05-07 08:53 47.73075 7.96699 26157 ft 458 kts 210°
2026-05-07 08:53 47.70267 7.94456 26425 ft 459 kts 209°
2026-05-07 08:54 47.67445 7.92202 26681 ft 461 kts 210°
2026-05-07 08:54 47.64614 7.89943 26918 ft 463 kts 210°
2026-05-07 08:54 47.61771 7.87681 27173 ft 465 kts 209°
2026-05-07 08:54 47.58918 7.85417 27438 ft 466 kts 209°
2026-05-07 08:55 47.56053 7.83149 27768 ft 466 kts 209°
2026-05-07 08:55 47.53194 7.80884 28135 ft 465 kts 209°
2026-05-07 08:55 47.50355 7.78633 28582 ft 463 kts 209°
2026-05-07 08:55 47.47515 7.76385 28952 ft 462 kts 209°
2026-05-07 08:56 47.41846 7.71913 29054 ft 461 kts 209°
2026-05-07 08:56 47.36184 7.67454 29049 ft 461 kts 209°
2026-05-07 08:57 47.30774 7.62439 29216 ft 459 kts 221°
2026-05-07 08:57 47.28486 7.59184 29586 ft 457 kts 230°
2026-05-07 08:57 47.26477 7.55558 29955 ft 456 kts 233°
2026-05-07 08:58 47.24511 7.51904 30272 ft 455 kts 233°
2026-05-07 08:58 47.22545 7.48249 30608 ft 454 kts 233°
2026-05-07 08:58 47.20614 7.44662 30946 ft 452 kts 233°
2026-05-07 08:58 47.18636 7.41001 31288 ft 451 kts 233°
2026-05-07 08:59 47.16712 7.37450 31631 ft 449 kts 233°
2026-05-07 08:59 47.14774 7.33871 31973 ft 447 kts 233°
2026-05-07 08:59 47.12840 7.30299 32316 ft 445 kts 233°
2026-05-07 08:59 47.10916 7.26753 32700 ft 443 kts 233°
2026-05-07 09:00 47.08996 7.23219 33083 ft 441 kts 233°
2026-05-07 09:00 47.07088 7.19714 33499 ft 439 kts 233°
2026-05-07 09:00 47.05184 7.16223 33925 ft 437 kts 233°
2026-05-07 09:00 47.03289 7.12750 34251 ft 435 kts 233°
2026-05-07 09:01 47.01406 7.09295 34548 ft 434 kts 233°
2026-05-07 09:01 46.99517 7.05829 34781 ft 433 kts 233°
2026-05-07 09:01 46.97634 7.02386 34979 ft 434 kts 232°
2026-05-07 09:01 46.95769 6.98985 35034 ft 435 kts 233°
2026-05-07 09:02 46.91975 6.92084 35057 ft 435 kts 233°
2026-05-07 09:02 46.88180 6.85181 35057 ft 435 kts 233°
2026-05-07 09:03 46.84372 6.78281 35057 ft 435 kts 233°
2026-05-07 09:03 46.80561 6.71404 35052 ft 435 kts 233°
2026-05-07 09:04 46.76753 6.64539 35029 ft 435 kts 233°
2026-05-07 09:04 46.72936 6.57680 35039 ft 435 kts 233°
2026-05-07 09:05 46.69040 6.51009 35027 ft 435 kts 230°
2026-05-07 09:05 46.64997 6.44451 35026 ft 435 kts 230°
2026-05-07 09:06 46.60945 6.37907 35025 ft 435 kts 230°
2026-05-07 09:06 46.56926 6.31340 35026 ft 435 kts 230°
2026-05-07 09:07 46.52913 6.24752 35024 ft 435 kts 230°
2026-05-07 09:07 46.48896 6.18170 35025 ft 435 kts 230°
2026-05-07 09:08 46.44864 6.11611 35026 ft 435 kts 230°
2026-05-07 09:08 46.40829 6.05061 35011 ft 435 kts 230°
2026-05-07 09:09 46.36797 5.98530 35021 ft 434 kts 230°
2026-05-07 09:09 46.32765 5.92021 35027 ft 434 kts 230°
2026-05-07 09:10 46.28975 5.85279 35027 ft 431 kts 237°
2026-05-07 09:10 46.25612 5.78159 35028 ft 431 kts 237°
2026-05-07 09:11 46.22221 5.71015 35020 ft 431 kts 237°
2026-05-07 09:11 46.19375 5.65042 35030 ft 431 kts 237°
2026-05-07 09:12 46.15980 5.57938 35034 ft 430 kts 237°
2026-05-07 09:12 46.12584 5.50834 35032 ft 430 kts 237°
2026-05-07 09:13 46.09185 5.43739 35038 ft 430 kts 237°
2026-05-07 09:13 46.05797 5.36697 35042 ft 430 kts 237°
2026-05-07 09:14 46.02388 5.29620 35037 ft 430 kts 237°
2026-05-07 09:14 45.98978 5.22561 35050 ft 429 kts 237°
2026-05-07 09:15 45.95571 5.15526 35047 ft 428 kts 237°
2026-05-07 09:15 45.92160 5.08504 35044 ft 428 kts 237°
2026-05-07 09:16 45.88750 5.01504 35062 ft 428 kts 237°
2026-05-07 09:16 45.85345 4.94523 35049 ft 427 kts 237°
2026-05-07 09:17 45.81946 4.87555 35063 ft 426 kts 237°
2026-05-07 09:17 45.78565 4.80652 35063 ft 425 kts 237°
2026-05-07 09:18 45.75161 4.73732 35058 ft 425 kts 237°
2026-05-07 09:18 45.71746 4.66815 35044 ft 425 kts 237°
2026-05-07 09:19 45.68337 4.59912 35049 ft 425 kts 237°
2026-05-07 09:19 45.64930 4.53016 35063 ft 424 kts 237°
2026-05-07 09:20 45.61522 4.46149 35075 ft 424 kts 237°
2026-05-07 09:20 45.58099 4.39273 35064 ft 423 kts 237°
2026-05-07 09:21 45.54686 4.32424 35057 ft 423 kts 237°
2026-05-07 09:21 45.51268 4.25589 35063 ft 423 kts 237°
2026-05-07 09:22 45.47866 4.18799 35057 ft 423 kts 237°
2026-05-07 09:22 45.44442 4.11987 35058 ft 422 kts 236°
2026-05-07 09:23 45.41024 4.05198 35062 ft 422 kts 236°
2026-05-07 09:23 45.37599 3.98402 35053 ft 422 kts 236°
2026-05-07 09:24 45.34163 3.91627 35059 ft 422 kts 236°
2026-05-07 09:24 45.30730 3.84857 35045 ft 422 kts 236°
2026-05-07 09:25 45.27293 3.78106 35056 ft 421 kts 236°
2026-05-07 09:25 45.23901 3.71411 35049 ft 420 kts 236°
2026-05-07 09:26 45.20563 3.64606 35049 ft 420 kts 237°
2026-05-07 09:26 45.17241 3.57795 35045 ft 420 kts 237°
2026-05-07 09:27 45.13904 3.51018 35042 ft 420 kts 237°
2026-05-07 09:28 45.08861 3.40880 35037 ft 418 kts 237°
2026-05-07 09:28 45.05512 3.34149 35043 ft 418 kts 237°
2026-05-07 09:29 45.02164 3.27428 35038 ft 418 kts 237°
2026-05-07 09:29 44.98812 3.20720 35036 ft 417 kts 236°
2026-05-07 09:30 44.95455 3.14027 35034 ft 417 kts 236°
2026-05-07 09:30 44.92119 3.07384 35026 ft 417 kts 237°
2026-05-07 09:31 44.88768 3.00718 35034 ft 417 kts 236°
2026-05-07 09:31 44.85407 2.94053 35034 ft 416 kts 236°
2026-05-07 09:32 44.82142 2.87323 35039 ft 415 kts 238°
2026-05-07 09:32 44.79039 2.80461 35034 ft 415 kts 239°
2026-05-07 09:33 44.75947 2.73604 35030 ft 415 kts 239°
2026-05-07 09:33 44.72807 2.66786 35030 ft 415 kts 238°
2026-05-07 09:34 44.69643 2.59992 35027 ft 415 kts 238°
2026-05-07 09:34 44.66494 2.53244 35027 ft 415 kts 238°
2026-05-07 09:35 44.63329 2.46459 35039 ft 415 kts 238°
2026-05-07 09:35 44.60163 2.39675 35045 ft 415 kts 238°
2026-05-07 09:36 44.56997 2.32901 35031 ft 415 kts 238°
2026-05-07 09:36 44.53832 2.26141 35040 ft 414 kts 238°
2026-05-07 09:37 44.50653 2.19399 35036 ft 415 kts 238°
2026-05-07 09:37 44.47469 2.12656 35032 ft 415 kts 238°
2026-05-07 09:38 44.44285 2.05915 35030 ft 415 kts 238°
2026-05-07 09:38 44.41093 1.99179 35027 ft 414 kts 238°
2026-05-07 09:39 44.37923 1.92505 35014 ft 414 kts 237°
2026-05-07 09:39 44.34709 1.85758 35018 ft 414 kts 237°
2026-05-07 09:40 44.31527 1.79098 35021 ft 415 kts 237°
2026-05-07 09:40 44.28331 1.72389 35023 ft 415 kts 238°
2026-05-07 09:41 44.25217 1.65603 35029 ft 415 kts 238°
2026-05-07 09:41 44.22128 1.58799 35031 ft 415 kts 238°
2026-05-07 09:42 44.19019 1.52012 35027 ft 415 kts 238°
2026-05-07 09:42 44.15890 1.45234 35026 ft 416 kts 237°
2026-05-07 09:43 44.12753 1.38470 35029 ft 416 kts 237°
2026-05-07 09:43 44.09606 1.31707 35027 ft 416 kts 237°
2026-05-07 09:44 44.06451 1.24939 35026 ft 416 kts 237°
2026-05-07 09:44 44.03302 1.18182 35022 ft 416 kts 237°
2026-05-07 09:45 44.00149 1.11430 35018 ft 417 kts 237°
2026-05-07 09:45 43.96987 1.04692 35022 ft 417 kts 237°
2026-05-07 09:46 43.93811 0.97942 35019 ft 417 kts 237°
2026-05-07 09:46 43.90661 0.91251 35022 ft 417 kts 237°
2026-05-07 09:47 43.87507 0.84489 35021 ft 418 kts 238°
2026-05-07 09:47 43.84529 0.77574 35024 ft 418 kts 239°
2026-05-07 09:48 43.81608 0.70611 35014 ft 418 kts 239°
2026-05-07 09:48 43.78648 0.63666 35017 ft 419 kts 239°
2026-05-07 09:49 43.75651 0.56745 35016 ft 419 kts 238°
2026-05-07 09:49 43.72640 0.49830 35017 ft 420 kts 238°
2026-05-07 09:50 43.69629 0.42925 35016 ft 420 kts 238°
2026-05-07 09:50 43.66621 0.36012 35029 ft 420 kts 238°
2026-05-07 09:51 43.63605 0.29106 35016 ft 420 kts 238°
2026-05-07 09:51 43.60578 0.22201 35009 ft 420 kts 238°
2026-05-07 09:52 43.57552 0.15302 35013 ft 421 kts 238°
2026-05-07 09:52 43.54517 0.08392 35016 ft 421 kts 238°
2026-05-07 09:53 43.51473 0.01492 35020 ft 421 kts 238°
2026-05-07 09:53 43.48420 -0.05401 35026 ft 422 kts 238°
2026-05-07 09:54 43.45358 -0.12295 35019 ft 422 kts 238°
2026-05-07 09:54 43.42315 -0.19142 35010 ft 422 kts 238°
2026-05-07 09:55 43.39251 -0.26039 35017 ft 423 kts 238°
2026-05-07 09:55 43.36176 -0.32928 35021 ft 423 kts 238°
2026-05-07 09:56 43.33091 -0.39808 35034 ft 423 kts 238°
2026-05-07 09:56 43.30008 -0.46688 35023 ft 423 kts 238°
2026-05-07 09:57 43.27449 -0.52400 35030 ft 423 kts 238°
2026-05-07 09:57 43.24360 -0.59267 35024 ft 423 kts 237°
2026-05-07 09:58 43.21266 -0.66125 35012 ft 423 kts 237°
2026-05-07 09:58 43.18164 -0.72972 35003 ft 423 kts 237°
2026-05-07 09:59 43.15062 -0.79815 34997 ft 423 kts 237°
2026-05-07 09:59 43.11954 -0.86657 34991 ft 423 kts 237°
2026-05-07 10:00 43.08837 -0.93495 34985 ft 423 kts 237°
2026-05-07 10:00 43.05712 -1.00334 34986 ft 423 kts 237°
2026-05-07 10:01 43.02586 -1.07148 34985 ft 424 kts 237°
2026-05-07 10:01 42.99451 -1.13968 34977 ft 424 kts 237°
2026-05-07 10:02 42.96315 -1.20785 34984 ft 424 kts 237°
2026-05-07 10:02 42.93175 -1.27602 34983 ft 424 kts 237°
2026-05-07 10:03 42.90049 -1.34373 34975 ft 424 kts 237°
2026-05-07 10:03 42.86875 -1.41219 34984 ft 424 kts 237°
2026-05-07 10:04 42.83738 -1.47967 34993 ft 424 kts 237°
2026-05-07 10:04 42.80579 -1.54761 35010 ft 424 kts 236°
2026-05-07 10:05 42.77414 -1.61543 35007 ft 424 kts 236°
2026-05-07 10:05 42.74258 -1.68340 35005 ft 424 kts 239°
2026-05-07 10:06 42.72112 -1.75830 35003 ft 427 kts 251°
2026-05-07 10:06 42.70387 -1.83567 35006 ft 427 kts 251°
2026-05-07 10:07 42.68636 -1.91278 35007 ft 427 kts 250°
2026-05-07 10:07 42.66878 -1.98993 35007 ft 427 kts 250°
2026-05-07 10:08 42.65123 -2.06706 35003 ft 427 kts 250°
2026-05-07 10:08 42.63362 -2.14418 35003 ft 427 kts 250°
2026-05-07 10:09 42.61557 -2.22099 35004 ft 427 kts 249°
2026-05-07 10:09 42.59685 -2.29761 35020 ft 428 kts 249°
2026-05-07 10:10 42.57797 -2.37420 35008 ft 428 kts 249°
2026-05-07 10:10 42.55918 -2.45091 35003 ft 428 kts 249°
2026-05-07 10:11 42.54048 -2.52768 34998 ft 429 kts 249°
2026-05-07 10:11 42.52186 -2.60383 34979 ft 429 kts 249°
2026-05-07 10:12 42.50295 -2.68047 34990 ft 429 kts 249°
2026-05-07 10:12 42.48237 -2.75617 34982 ft 426 kts 242°
2026-05-07 10:13 42.45648 -2.82851 34972 ft 427 kts 241°
2026-05-07 10:13 42.43043 -2.90072 34969 ft 427 kts 242°
2026-05-07 10:14 42.40487 -2.97351 34969 ft 428 kts 242°
2026-05-07 10:14 42.37960 -3.04637 34968 ft 427 kts 242°
2026-05-07 10:15 42.35413 -3.11909 34960 ft 428 kts 242°
2026-05-07 10:15 42.32848 -3.19177 34957 ft 429 kts 242°
2026-05-07 10:16 42.30271 -3.26449 34953 ft 429 kts 242°
2026-05-07 10:16 42.27697 -3.33720 34963 ft 429 kts 242°
2026-05-07 10:17 42.25124 -3.40980 34959 ft 429 kts 242°
2026-05-07 10:17 42.22542 -3.48242 34977 ft 429 kts 242°
2026-05-07 10:18 42.19947 -3.55500 34973 ft 429 kts 242°
2026-05-07 10:18 42.17345 -3.62754 34955 ft 429 kts 241°
2026-05-07 10:19 42.14736 -3.70000 34950 ft 430 kts 241°
2026-05-07 10:19 42.12147 -3.77194 34951 ft 430 kts 241°
2026-05-07 10:20 42.09536 -3.84435 34969 ft 430 kts 242°
2026-05-07 10:20 42.06915 -3.91669 34965 ft 430 kts 241°
2026-05-07 10:21 42.04291 -3.98898 34956 ft 430 kts 241°
2026-05-07 10:21 42.01664 -4.06110 34957 ft 430 kts 241°
2026-05-07 10:22 41.99033 -4.13325 34950 ft 430 kts 241°
2026-05-07 10:22 41.96396 -4.20546 34951 ft 430 kts 241°
2026-05-07 10:23 41.93756 -4.27753 34938 ft 430 kts 241°
2026-05-07 10:23 41.91112 -4.34945 34936 ft 430 kts 241°
2026-05-07 10:24 41.88463 -4.42140 34946 ft 430 kts 241°
2026-05-07 10:24 41.85807 -4.49327 34940 ft 430 kts 241°
2026-05-07 10:25 41.83148 -4.56508 34939 ft 430 kts 241°
2026-05-07 10:25 41.80506 -4.63632 34933 ft 430 kts 241°
2026-05-07 10:26 41.77834 -4.70799 34946 ft 430 kts 241°
2026-05-07 10:26 41.75160 -4.77963 34946 ft 430 kts 241°
2026-05-07 10:27 41.72489 -4.85115 34944 ft 430 kts 241°
2026-05-07 10:27 41.69812 -4.92268 34943 ft 430 kts 241°
2026-05-07 10:28 41.67130 -4.99418 34945 ft 430 kts 241°
2026-05-07 10:28 41.64434 -5.06571 34925 ft 431 kts 241°
2026-05-07 10:29 41.61726 -5.13719 34918 ft 432 kts 241°
2026-05-07 10:29 41.59008 -5.20875 34914 ft 432 kts 241°
2026-05-07 10:30 41.54928 -5.31618 34908 ft 432 kts 241°
2026-05-07 10:30 41.52211 -5.38781 34911 ft 433 kts 242°
2026-05-07 10:31 41.49479 -5.45955 34905 ft 434 kts 242°
2026-05-07 10:31 41.46729 -5.53120 34902 ft 435 kts 242°
2026-05-07 10:32 41.43967 -5.60293 34903 ft 435 kts 242°
2026-05-07 10:32 41.41206 -5.67410 34898 ft 435 kts 242°
2026-05-07 10:33 41.38413 -5.74565 34899 ft 436 kts 243°
2026-05-07 10:33 41.35605 -5.81726 34892 ft 436 kts 240°
2026-05-07 10:34 41.32175 -5.88397 34895 ft 437 kts 235°
2026-05-07 10:34 41.28673 -5.95008 34893 ft 438 kts 235°
2026-05-07 10:35 41.25157 -6.01624 34895 ft 438 kts 235°
2026-05-07 10:35 41.21638 -6.08243 34897 ft 438 kts 235°
2026-05-07 10:36 41.18109 -6.14859 34880 ft 439 kts 236°
2026-05-07 10:36 41.14567 -6.21485 34884 ft 441 kts 236°
2026-05-07 10:37 41.11020 -6.28123 34886 ft 441 kts 236°
2026-05-07 10:37 41.07482 -6.34790 34890 ft 442 kts 237°
2026-05-07 10:38 41.03950 -6.41441 34889 ft 442 kts 237°
2026-05-07 10:38 41.00406 -6.48096 34886 ft 442 kts 237°
2026-05-07 10:39 40.96845 -6.54745 34884 ft 443 kts 237°
2026-05-07 10:39 40.93295 -6.61357 34877 ft 444 kts 238°
2026-05-07 10:40 40.89714 -6.68005 34883 ft 444 kts 238°
2026-05-07 10:40 40.86138 -6.74657 34888 ft 444 kts 238°
2026-05-07 10:41 40.82557 -6.81306 34894 ft 444 kts 238°
2026-05-07 10:41 40.78963 -6.87947 34876 ft 445 kts 239°
2026-05-07 10:42 40.75971 -6.93468 34878 ft 446 kts 239°
2026-05-07 10:42 40.72361 -7.00123 34898 ft 446 kts 239°
2026-05-07 10:43 40.68745 -7.06776 34870 ft 444 kts 239°
2026-05-07 10:43 40.65146 -7.13376 34898 ft 443 kts 239°
2026-05-07 10:44 40.61550 -7.19940 34910 ft 442 kts 238°
2026-05-07 10:44 40.57155 -7.25718 34896 ft 448 kts 228°
2026-05-07 10:45 40.52555 -7.31267 34918 ft 448 kts 228°
2026-05-07 10:45 40.47963 -7.36800 34908 ft 447 kts 228°
2026-05-07 10:46 40.43379 -7.42312 34909 ft 447 kts 228°
2026-05-07 10:46 40.38822 -7.47780 34902 ft 446 kts 228°
2026-05-07 10:47 40.34233 -7.53269 34901 ft 447 kts 228°
2026-05-07 10:47 40.29641 -7.58765 34914 ft 447 kts 228°
2026-05-07 10:48 40.25053 -7.64246 34900 ft 446 kts 229°
2026-05-07 10:48 40.20462 -7.69700 34894 ft 445 kts 229°
2026-05-07 10:49 40.15881 -7.75133 34919 ft 444 kts 229°
2026-05-07 10:49 40.11325 -7.80545 34924 ft 442 kts 230°
2026-05-07 10:50 40.06773 -7.85956 34926 ft 442 kts 230°
2026-05-07 10:50 40.02221 -7.91341 34926 ft 441 kts 229°
2026-05-07 10:51 39.97665 -7.96708 34902 ft 441 kts 230°
2026-05-07 10:51 39.93109 -8.02065 34917 ft 440 kts 230°
2026-05-07 10:52 39.88568 -8.07395 34923 ft 439 kts 230°
2026-05-07 10:52 39.84030 -8.12717 34924 ft 439 kts 230°
2026-05-07 10:53 39.79538 -8.18011 34923 ft 438 kts 230°
2026-05-07 10:53 39.75019 -8.23338 34928 ft 438 kts 230°
2026-05-07 10:54 39.70487 -8.28653 34922 ft 438 kts 230°
2026-05-07 10:54 39.65961 -8.33936 34873 ft 438 kts 230°
2026-05-07 10:55 39.63691 -8.36586 34372 ft 437 kts 230°
2026-05-07 10:55 39.61439 -8.39211 33836 ft 435 kts 231°
2026-05-07 10:55 39.59194 -8.41830 33156 ft 435 kts 231°
2026-05-07 10:55 39.56936 -8.44467 32492 ft 437 kts 230°
2026-05-07 10:56 39.54671 -8.47113 31847 ft 440 kts 230°
2026-05-07 10:56 39.52384 -8.49781 31220 ft 444 kts 230°
2026-05-07 10:56 39.50081 -8.52462 30594 ft 447 kts 230°
2026-05-07 10:56 39.47762 -8.55155 29950 ft 449 kts 229°
2026-05-07 10:57 39.45428 -8.57860 29256 ft 451 kts 229°
2026-05-07 10:57 39.43084 -8.60578 28566 ft 454 kts 229°
2026-05-07 10:57 39.40726 -8.63313 27891 ft 457 kts 228°
2026-05-07 10:57 39.38357 -8.66057 27123 ft 459 kts 228°
2026-05-07 10:58 39.35964 -8.68822 26354 ft 462 kts 227°
2026-05-07 10:58 39.33561 -8.71591 25612 ft 465 kts 227°
2026-05-07 10:58 39.31134 -8.74384 24863 ft 468 kts 226°
2026-05-07 10:58 39.28707 -8.77175 24159 ft 467 kts 226°
2026-05-07 10:59 39.26291 -8.79952 23466 ft 464 kts 226°
2026-05-07 10:59 39.23887 -8.82713 22637 ft 460 kts 226°
2026-05-07 10:59 39.21514 -8.85438 21842 ft 454 kts 225°
2026-05-07 10:59 39.19167 -8.88128 21063 ft 449 kts 225°
2026-05-07 11:00 39.16839 -8.90797 20307 ft 445 kts 225°
2026-05-07 11:00 39.14541 -8.93434 19563 ft 441 kts 224°
2026-05-07 11:00 39.12263 -8.96046 18856 ft 437 kts 224°
2026-05-07 11:00 39.10000 -8.98639 18140 ft 433 kts 224°
2026-05-07 11:01 39.07750 -9.01211 17330 ft 430 kts 223°
2026-05-07 11:01 39.05529 -9.03746 16550 ft 426 kts 223°
2026-05-07 11:01 39.03316 -9.06271 15836 ft 422 kts 223°
2026-05-07 11:01 39.01137 -9.08757 15213 ft 416 kts 223°
2026-05-07 11:02 38.98988 -9.11205 14594 ft 410 kts 223°
2026-05-07 11:02 38.96861 -9.13625 13986 ft 405 kts 223°
2026-05-07 11:02 38.94769 -9.16003 13357 ft 400 kts 222°
2026-05-07 11:02 38.92697 -9.18355 12698 ft 394 kts 223°
2026-05-07 11:03 38.90658 -9.20667 12076 ft 390 kts 222°
2026-05-07 11:03 38.88638 -9.22956 11448 ft 385 kts 221°
2026-05-07 11:03 38.86643 -9.25219 10816 ft 379 kts 221°
2026-05-07 11:03 38.84689 -9.27434 10349 ft 370 kts 221°
2026-05-07 11:04 38.82797 -9.29574 9871 ft 356 kts 221°
2026-05-07 11:04 38.80971 -9.31637 9344 ft 344 kts 221°
2026-05-07 11:04 38.79204 -9.33634 8912 ft 331 kts 221°
2026-05-07 11:04 38.77522 -9.35537 8650 ft 315 kts 221°
2026-05-07 11:05 38.75899 -9.37371 8400 ft 306 kts 221°
2026-05-07 11:05 38.74325 -9.39149 8129 ft 298 kts 221°
2026-05-07 11:05 38.72813 -9.40848 7965 ft 287 kts 221°
2026-05-07 11:05 38.71326 -9.42480 7787 ft 277 kts 220°
2026-05-07 11:06 38.69862 -9.44067 7457 ft 274 kts 220°
2026-05-07 11:06 38.68410 -9.45636 7014 ft 272 kts 220°
2026-05-07 11:06 38.66966 -9.47194 6558 ft 271 kts 220°
2026-05-07 11:06 38.65332 -9.48375 6087 ft 271 kts 198°
2026-05-07 11:07 38.63471 -9.48622 5597 ft 271 kts 173°
2026-05-07 11:07 38.61703 -9.47843 5192 ft 269 kts 147°
2026-05-07 11:07 38.60355 -9.46210 4938 ft 270 kts 123°
2026-05-07 11:07 38.59619 -9.44029 4687 ft 267 kts 105°
2026-05-07 11:08 38.59111 -9.41745 4423 ft 267 kts 104°
2026-05-07 11:08 38.58601 -9.39459 4164 ft 267 kts 105°
2026-05-07 11:08 38.58095 -9.37205 4021 ft 258 kts 105°
2026-05-07 11:08 38.57610 -9.35063 4020 ft 247 kts 105°
2026-05-07 11:09 38.57137 -9.32959 4021 ft 246 kts 103°
2026-05-07 11:09 38.57035 -9.30813 4023 ft 242 kts 77°
2026-05-07 11:09 38.57577 -9.28834 4024 ft 233 kts 66°
2026-05-07 11:09 38.58196 -9.26933 4021 ft 229 kts 66°
2026-05-07 11:10 38.58806 -9.25121 4017 ft 215 kts 60°
2026-05-07 11:10 38.59720 -9.23662 3900 ft 209 kts 39°
2026-05-07 11:10 38.60964 -9.22745 3675 ft 206 kts 21°
2026-05-07 11:10 38.62289 -9.22045 3419 ft 206 kts 21°
2026-05-07 11:11 38.63609 -9.21343 3141 ft 204 kts 21°
2026-05-07 11:11 38.64899 -9.20656 2863 ft 197 kts 22°
2026-05-07 11:11 38.66142 -9.19994 2618 ft 189 kts 20°
2026-05-07 11:11 38.67341 -9.19354 2358 ft 186 kts 19°
2026-05-07 11:12 38.68523 -9.18724 2082 ft 182 kts 21°
2026-05-07 11:12 38.69664 -9.18107 1870 ft 172 kts 21°
2026-05-07 11:12 38.70748 -9.17538 1649 ft 165 kts 19°
2026-05-07 11:12 38.71790 -9.16980 1406 ft 158 kts 19°
2026-05-07 11:13 38.72778 -9.16449 1200 ft 152 kts 19°
2026-05-07 11:13 38.73747 -9.15932 985 ft 152 kts 20°
2026-05-07 11:13 38.74723 -9.15412 777 ft 151 kts 18°
2026-05-07 11:13 38.75717 -9.14878 578 ft 154 kts 19°
2026-05-07 11:14 38.76727 -9.14340 366 ft 159 kts 18°
2026-05-07 11:14 38.77683 -9.13827 449 ft 151 kts 19°
2026-05-07 11:14 38.78664 -9.13287 1254 ft 157 kts 21°
2026-05-07 11:14 38.79674 -9.12707 1958 ft 166 kts 22°
2026-05-07 11:15 38.80798 -9.12052 2257 ft 189 kts 21°
2026-05-07 11:15 38.82071 -9.11313 2599 ft 211 kts 22°
2026-05-07 11:15 38.83437 -9.10518 3148 ft 218 kts 22°
2026-05-07 11:15 38.84822 -9.09712 3647 ft 219 kts 23°
2026-05-07 11:16 38.86211 -9.08907 4157 ft 221 kts 24°
2026-05-07 11:16 38.87463 -9.07728 4678 ft 228 kts 54°
2026-05-07 11:16 38.88051 -9.05859 5122 ft 229 kts 89°
2026-05-07 11:16 38.87756 -9.03844 5495 ft 240 kts 119°
2026-05-07 11:17 38.86653 -9.02259 5748 ft 241 kts 150°
2026-05-07 11:17 38.85067 -9.01605 5915 ft 242 kts 174°
2026-05-07 11:17 38.83389 -9.01483 5942 ft 242 kts 179°
2026-05-07 11:17 38.81710 -9.01434 5951 ft 241 kts 179°
2026-05-07 11:18 38.80027 -9.01395 5940 ft 241 kts 179°
2026-05-07 11:18 38.78349 -9.01361 5952 ft 241 kts 179°
2026-05-07 11:18 38.76673 -9.01344 5957 ft 242 kts 183°
2026-05-07 11:18 38.75024 -9.01801 5746 ft 243 kts 197°
2026-05-07 11:19 38.73428 -9.02495 5496 ft 242 kts 199°
2026-05-07 11:19 38.71844 -9.03213 5242 ft 241 kts 199°
2026-05-07 11:19 38.70263 -9.03924 4996 ft 240 kts 199°
2026-05-07 11:19 38.68690 -9.04626 4741 ft 240 kts 199°
2026-05-07 11:20 38.67104 -9.05325 4482 ft 241 kts 199°
2026-05-07 11:20 38.65519 -9.06016 4222 ft 241 kts 199°
2026-05-07 11:20 38.63934 -9.06701 4037 ft 241 kts 199°
2026-05-07 11:20 38.62342 -9.07384 4009 ft 241 kts 199°
2026-05-07 11:21 38.60751 -9.08062 4011 ft 241 kts 199°
2026-05-07 11:21 38.59160 -9.08739 4011 ft 241 kts 199°
2026-05-07 11:21 38.57583 -9.09408 4014 ft 245 kts 199°
2026-05-07 11:21 38.55957 -9.10105 4017 ft 247 kts 199°
2026-05-07 11:22 38.54325 -9.10805 4017 ft 248 kts 199°
2026-05-07 11:22 38.52698 -9.11503 4014 ft 247 kts 199°
2026-05-07 11:22 38.51128 -9.12347 4011 ft 240 kts 216°
2026-05-07 11:22 38.49990 -9.13832 4015 ft 233 kts 242°
2026-05-07 11:23 38.49465 -9.15755 4015 ft 230 kts 265°
2026-05-07 11:23 38.49613 -9.17763 4014 ft 227 kts 290°
2026-05-07 11:23 38.50393 -9.19484 4015 ft 225 kts 314°
2026-05-07 11:23 38.51656 -9.20644 4017 ft 225 kts 338°
2026-05-07 11:24 38.53140 -9.21258 4016 ft 220 kts 343°
2026-05-07 11:24 38.54564 -9.21820 4011 ft 210 kts 343°
2026-05-07 11:24 38.55943 -9.22369 4012 ft 203 kts 343°
2026-05-07 11:24 38.57271 -9.22898 4014 ft 198 kts 343°
2026-05-07 11:25 38.58605 -9.23225 4015 ft 195 kts 357°
2026-05-07 11:25 38.59961 -9.23109 3930 ft 198 kts 13°
2026-05-07 11:25 38.60837 -9.22767 3740 ft 199 kts 19°
2026-05-07 11:25 38.62113 -9.22131 3472 ft 195 kts 22°
2026-05-07 11:26 38.63356 -9.21475 3197 ft 191 kts 21°
2026-05-07 11:26 38.64565 -9.20832 2935 ft 186 kts 21°
2026-05-07 11:26 38.65748 -9.20203 2684 ft 182 kts 21°
2026-05-07 11:26 38.66895 -9.19591 2438 ft 174 kts 21°
2026-05-07 11:27 38.67991 -9.19000 2235 ft 166 kts 20°
2026-05-07 11:27 38.69011 -9.18456 2018 ft 152 kts 19°
2026-05-07 11:27 38.69968 -9.17948 1794 ft 148 kts 21°
2026-05-07 11:27 38.70913 -9.17444 1627 ft 148 kts 20°
2026-05-07 11:28 38.71857 -9.16940 1392 ft 146 kts 19°
2026-05-07 11:28 38.72786 -9.16448 1208 ft 143 kts 19°
2026-05-07 11:28 38.73706 -9.15952 1015 ft 147 kts 19°
2026-05-07 11:28 38.74658 -9.15444 808 ft 148 kts 18°
2026-05-07 11:29 38.75622 -9.14931 619 ft 151 kts 19°
2026-05-07 11:29 38.76609 -9.14405 421 ft 154 kts 20°
2026-05-07 11:29 38.77549 -9.13906 368 ft 134 kts 23°
2026-05-07 11:29 38.78262 -9.13522 368 ft 86 kts 22°
2026-05-07 11:30 38.78518 -9.13375 361 ft 14 kts 40°
2026-05-07 11:30 38.78520 -9.13260 363 ft 13 kts 127°
2026-05-07 11:30 38.78444 -9.13222 365 ft 12 kts 175°
2026-05-07 11:30 38.78357 -9.13246 364 ft 14 kts 201°
2026-05-07 11:31 38.78259 -9.13297 363 ft 17 kts 202°
2026-05-07 11:31 38.78145 -9.13357 359 ft 19 kts 201°
2026-05-07 11:31 38.78016 -9.13425 361 ft 21 kts 203°
2026-05-07 11:31 38.77874 -9.13501 359 ft 23 kts 199°
2026-05-07 11:32 38.77514 -9.13429 349 ft 25 kts 168°
2026-05-07 11:32 38.77341 -9.13383 342 ft 20 kts 168°
2026-05-07 11:32 38.77219 -9.13352 341 ft 19 kts 168°
2026-05-07 11:33 38.77084 -9.13314 341 ft 21 kts 168°
2026-05-07 11:33 38.76938 -9.13276 341 ft 23 kts 168°
2026-05-07 11:33 38.76822 -9.13244 340 ft 7 kts 168°
2026-05-07 11:33 38.76772 -9.13260 336 ft 10 kts 227°
2026-05-07 11:34 38.76742 -9.13372 353 ft 15 kts 246°
2026-05-07 11:34 38.76664 -9.13459 350 ft 15 kts 233°
2026-05-07 11:34 38.76636 -9.13596 345 ft 17 kts 258°
2026-05-07 11:34 38.76606 -9.13658 351 ft 7 kts 196°
2026-05-07 11:35 38.76564 -9.13670 350 ft 7 kts 210°
2026-05-07 11:35 38.76513 -9.13695 352 ft 9 kts 171°
2026-05-07 11:35 38.76479 -9.13687 351 ft 3 kts 168°
2026-05-07 11:35 38.76468 -9.13684 357 ft 0 kts 168°